Location: Azul
(36.7830°S, 59.8500°W)
Time: 10:40:01
(UTC-03:00)

CUTE-I - Visible Passes

Search period start: 22 October 2021 00:00
Search period end: 01 November 2021 00:00
Orbit: 809 x 825 km, 98.7° (Epoch: 21 October)

Date Brightness Start Highest point End Pass type
(mag) Time Alt. Az. Time Alt. Az. Time Alt. Az.
22 Oct ? 05:27:24 10° ENE 05:31:36 23° ESE 05:35:48 10° SSE visible
22 Oct ? 21:08:52 10° SW 21:09:45 10° WSW 21:10:36 10° WSW visible
23 Oct ? 05:07:20 10° E 05:10:19 15° ESE 05:13:18 10° SSE visible
23 Oct ? 20:45:12 10° SSW 20:48:31 17° WSW 20:51:50 10° WNW visible
24 Oct ? 20:22:50 10° SSW 20:27:14 26° WSW 20:31:35 10° WNW visible
25 Oct ? 20:00:50 10° S 20:05:52 40° WSW 20:10:50 10° NW visible
27 Oct ? 05:20:09 10° ENE 05:23:59 20° ESE 05:27:50 10° SSE visible
27 Oct ? 21:00:02 10° SW 21:02:11 12° WSW 21:04:18 10° W visible
28 Oct ? 05:00:26 10° E 05:02:44 13° ESE 05:05:03 10° SE visible
28 Oct ? 20:37:10 10° SSW 20:40:55 20° WSW 20:44:39 10° WNW visible
29 Oct ? 20:14:57 10° S 20:19:36 30° WSW 20:24:12 10° NW visible
30 Oct ? 19:53:03 10° S 19:58:13 47° WSW 20:03:19 10° NW visible
